1308960031423,3.64593
1308960091423,3.61602
1308960151423,3.60723
1308960211423,3.63898
1308960271423,3.63605
1308960331423,3.64143
1308960391423,3.64581
1308960451423,3.65530
1308960511423,3.61297
1308960571423,3.62218
1308960631423,3.64195
1308960691423,3.61387
1308960751423,3.59763
1308960811423,3.68038
1308960871423,3.62805
1308960931423,3.58961
1308960991423,3.62103
1308961051423,3.59648
1308961111423,3.58073
1308961171423,3.64135
1308961231423,3.60531
1308961291423,3.59942
1308961351423,3.62360
1308961411423,3.61912
1308961471423,3.61895
1308961531423,3.60345
1308961591423,3.59282
1308961651423,3.64355
1308961711423,3.60120
1308961771423,3.64393
1308961831423,3.61094
1308961891423,3.65393
1308961951423,3.59585
1308962011423,3.62976
1308962071423,3.62304
1308962131423,3.59642
1308962191423,3.60986
1308962251423,3.60136
1308962311423,3.61883
1308962371423,3.61945
1308962431423,3.59706
1308962491423,3.61970
1308962551423,3.56791
1308962611423,3.61500
1308962671423,3.60628
1308962731423,3.61951
1308962791423,3.59270
1308962851423,3.61321
1308962911423,3.62207
1308962971423,3.64920
1308963031423,3.61556
1308963091423,3.56451
1308963151423,3.58034
1308963211423,3.58940
1308963271423,3.59355
1308963331423,3.59617
1308963391423,3.60736
1308963451423,3.61692
1308963511423,3.60495
1308963571423,3.58380
1308963631433,3.58217
1308963691433,3.61535
1308963751433,3.59702
1308963811433,3.59902
1308963871433,3.61556
1308963931433,3.61545
1308963991433,3.62938
1308964051433,3.57879
1308964111433,3.59091
1308964171433,3.57632
1308964231433,3.57173
1308964291433,3.61018
1308964351433,3.60175
1308964411433,3.58949
1308964471433,3.58838
1308964531433,3.60002
1308964591433,3.57223
1308964651433,3.58852
1308964711433,3.57819
1308964771433,3.56828
1308964831433,3.55857
1308964891433,3.60207
1308964951433,3.59511
1308965011433,3.56510
1308965071433,3.53556
1308965131433,3.59194
1308965191433,3.57273
1308965251433,3.58990
1308965311433,3.57598
1308965371433,3.59964
1308965431433,3.59487
1308965491433,3.58323
1308965551433,3.57729
1308965611433,3.60218
1308965671433,3.59984
1308965731433,3.56303
1308965791433,3.59012
1308965851433,3.60274
1308965911433,3.60540
1308965971433,3.56274
1308966031433,3.59099
1308966091433,3.58127
1308966151433,3.58964
1308966211433,3.60256
1308966271433,3.58514
1308966331433,3.59483
1308966391433,3.61336
1308966451433,3.56956
1308966511433,3.56336
1308966571433,3.58933
1308966631433,3.59128
1308966691433,3.57626
1308966751433,3.57763
1308966811433,3.60439
1308966871433,3.59442
1308966931433,3.60650
1308966991433,3.59335
1308967051433,3.57086
1308967111433,3.56543
1308967171433,3.55871
1308967231443,3.59094
1308967291443,3.59425
1308967351443,3.63452
1308967411443,3.58893
1308967471443,3.58737
1308967531443,3.58587
1308967591443,3.59919
1308967651443,3.57465
1308967711443,3.56790
1308967771443,3.56155
1308967831443,3.56051
1308967891443,3.58404
1308967951443,3.57459
1308968011443,3.57219
1308968071443,3.57668
1308968131442,3.58165
1308968191442,3.58588
1308968251442,3.55789
1308968311442,3.60691
1308968371442,3.60737
1308968431442,3.55240
1308968491443,3.55892
1308968551443,3.57091
1308968611443,3.58897
1308968671443,3.56899
1308968731443,3.56431
1308968791443,3.59571
1308968851443,3.57399
1308968911443,3.53895
1308968971443,3.59301
1308969031443,3.58915
1308969091443,3.61048
1308969151443,3.57395
1308969211443,3.59110
1308969271443,3.55854
1308969331443,3.58239
1308969391443,3.55801
1308969451443,3.59644
1308969511442,3.57901
1308969571442,3.56326
1308969631442,3.60983
1308969691442,3.57277
1308969751442,3.58818
1308969811442,3.56521
1308969871443,3.60613
1308969931443,3.60367
1308969991443,3.58130
1308970051443,3.59365
1308970111443,3.58934
1308970171443,3.58982
1308970231443,3.59032
1308970291443,3.54857
1308970351443,3.59309
1308970411443,3.59657
1308970471443,3.57744
1308970531443,3.59379
1308970591443,3.57635
1308970651443,3.56527
1308970711443,3.58555
1308970771443,3.59526
1308970831452,3.59126
1308970891452,3.58625
1308970951452,3.59433
1308971011452,3.59304
1308971071452,3.55993
1308971131452,3.59062
1308971191452,3.61674
1308971251452,3.58684
1308971311452,3.59413
1308971371452,3.60328
1308971431452,3.60323
1308971491452,3.60035
1308971551452,3.57718
1308971611452,3.60751
1308971671452,3.59798
1308971731452,3.56265
1308971791452,3.57937
1308971851452,3.60387
1308971911452,3.59861
1308971971452,3.55193
1308972031452,3.57910
1308972091452,3.58657
1308972151452,3.59575
1308972211452,3.58093
1308972271452,3.63276
1308972331452,3.63989
1308972391452,3.59579
1308972451452,3.57134
1308972511452,3.58538
1308972571452,3.60676
1308972631452,3.59414
1308972691452,3.60613
1308972751452,3.59628
1308972811452,3.56485
1308972871452,3.60655
1308972931452,3.61133
1308972991452,3.58674
1308973051452,3.59386
1308973111452,3.58422
1308973171452,3.60188
1308973231452,3.61438
1308973291452,3.59750
1308973351452,3.61914
1308973411452,3.61538
1308973471452,3.59134
1308973531452,3.61167
1308973591452,3.60642
1308973651452,3.59694
1308973711452,3.59773
1308973771452,3.59469
1308973831452,3.60519
1308973891452,3.59474
1308973951452,3.58805
1308974011452,3.57235
1308974071452,3.59214
1308974131452,3.61091
1308974191452,3.60191
1308974251452,3.58008
1308974311452,3.60459
1308974371452,3.60994
1308974431461,3.60412
1308974491461,3.59775
1308974551461,3.58185
1308974611461,3.60111
1308974671461,3.59867
1308974731461,3.60683
1308974791461,3.59304
1308974851461,3.57899
1308974911461,3.59162
1308974971461,3.57536
1308975031461,3.61624
1308975091461,3.61006
1308975151461,3.60207
1308975211461,3.61029
1308975271461,3.61241
1308975331461,3.61099
1308975391461,3.63365
1308975451461,3.77475
1308975511461,3.61493
1308975571461,3.58343
1308975631461,3.59763
1308975691461,3.61026
1308975751461,3.58529
1308975811461,3.60744
1308975871461,3.59891
1308975931461,3.58927
1308975991461,3.57977
1308976051461,3.59070
1308976111461,3.63373
1308976171461,3.62388
1308976231461,3.62542
1308976291461,3.57577
1308976351461,3.58664
1308976411461,3.59156
1308976471461,3.57751
1308976531461,3.60350
1308976591461,3.56435
1308976651461,3.60387
1308976711461,3.59831
1308976771461,3.56872
1308976831461,3.60409
1308976891461,3.59962
1308976951461,3.59136
1308977011461,3.64136
1308977071461,3.59088
1308977131461,3.58991
1308977191461,3.61743
1308977251461,3.57178
1308977311461,3.60925
1308977371461,3.62190
1308977431461,3.58415
1308977491461,3.60812
1308977551461,3.60368
1308977611461,3.61194
1308977671461,3.62867
1308977731461,3.58833
1308977791461,3.62386
1308977851461,3.55897
1308977911461,3.58010
1308977971461,3.61414
1308978031471,3.61424
1308978091471,3.60181
1308978151471,3.60860
1308978211471,3.62417
1308978271471,3.62481
1308978331471,3.56932
1308978391471,3.59192
1308978451471,3.57964
1308978511471,3.58045
1308978571471,3.62783
1308978631471,3.60098
1308978691471,3.57544
1308978751471,3.63274
1308978811471,3.62254
1308978871471,3.61005
1308978931471,3.60288
1308978991471,3.60988
1308979051471,3.58918
1308979111471,3.64521
1308979171471,3.62626
1308979231471,3.61940
1308979291471,3.62262
1308979351471,3.63416
1308979411471,3.62028
1308979471471,3.60215
1308979531471,3.60789
1308979591471,3.61220
1308979651471,3.62560
1308979711471,3.61367
1308979771471,3.60168
1308979831471,3.64241
1308979891471,3.61303
1308979951471,3.59458
1308980011471,3.65423
1308980071471,3.61025
1308980131471,3.62012
1308980191471,3.63939
1308980251471,3.63401
1308980311471,3.62195
1308980371471,3.61252
1308980431471,3.61425
1308980491471,3.64864
1308980551471,3.62105
1308980611471,3.65636
1308980671471,3.64876
1308980731471,3.64146
1308980791471,3.63689
1308980851471,3.62391
1308980911471,3.65317
1308980971471,3.60163
1308981031471,3.61169
1308981091471,3.62807
1308981151471,3.60810
1308981211471,3.63177
1308981271471,3.62051
1308981331471,3.64363
1308981391471,3.63475
1308981451471,3.59695
1308981511471,3.63257
1308981571471,3.63846
1308981631480,3.65018
1308981691480,3.62241
1308981751480,3.62978
1308981811480,3.63115
1308981871480,3.59510
1308981931480,3.62788
1308981991480,3.65991
1308982051480,3.65772
1308982111480,3.64791
1308982171480,3.64351
1308982231480,3.61615
1308982291480,3.63951
1308982351480,3.62738
1308982411480,3.63678
1308982471480,3.64648
1308982531480,3.65388
1308982591480,3.62238
1308982651480,3.66105
1308982711480,3.67048
1308982771480,3.65894
1308982831480,3.62595
1308982891480,3.66101
1308982951480,3.65378
1308983011480,3.61170
1308983071480,3.65321
1308983131480,3.65384
1308983191480,3.66095
1308983251480,3.67602
1308983311480,3.63385
1308983371480,3.68837
1308983431480,3.64516
1308983491480,3.66005
1308983551480,3.63900
1308983611480,3.67980
1308983671480,3.68057
1308983731480,3.65532
1308983791480,3.65821
1308983851480,3.61904
1308983911480,3.62653
1308983971480,3.63434
1308984031480,3.66089
1308984091480,3.67018
1308984151480,3.63473
1308984211480,3.61710
1308984271480,3.64749
1308984331480,3.64835
1308984391480,3.63329
1308984451480,3.66360
1308984511480,3.65646
1308984571480,3.66653
1308984631480,3.63002
1308984691480,3.64493
1308984751480,3.64397
1308984811480,3.65057
1308984871480,3.64605
1308984931480,3.65038
1308984991480,3.68368
1308985051480,3.65500
1308985111480,3.63018
1308985171480,3.66194
1308985231489,3.68018
1308985291489,3.63681
1308985351489,3.65304
1308985411489,3.67835
1308985471489,3.67681
1308985531489,3.67199
1308985591489,3.66935
1308985651489,3.68891
1308985711489,3.65637
1308985771489,3.66656
1308985831489,3.64303
1308985891489,3.65695
1308985951489,3.61410
1308986011489,3.66208
1308986071489,3.64367
1308986131489,3.67733
1308986191489,3.66851
1308986251489,3.67312
1308986311489,3.65266
1308986371489,3.66888
1308986431489,3.66946
1308986491489,3.67482
1308986551489,3.65331
1308986611489,3.66016
1308986671489,3.62449
1308986731489,3.64582
1308986791489,3.65949
1308986851489,3.66811
1308986911489,3.67524
1308986971489,3.63970
1308987031489,3.65380
1308987091489,3.64888
1308987151489,3.63482
1308987211489,3.63993
1308987271489,3.65139
1308987331489,3.67166
1308987391489,3.69662
1308987451489,3.64526
1308987511489,3.65077
1308987571489,3.63959
1308987631489,3.63970
1308987691489,3.62029
1308987751489,3.66887
1308987811489,3.64080
1308987871489,3.66517
1308987931489,3.62040
1308987991489,3.65581
1308988051489,3.65356
1308988111489,3.65989
1308988171489,3.67502
1308988231489,3.65346
1308988291489,3.66637
1308988351489,3.64580
1308988411489,3.66449
1308988471489,3.65904
1308988531489,3.66680
1308988591489,3.65732
1308988651489,3.65149
1308988711489,3.67834
1308988771489,3.65471
1308988831498,3.69172
1308988891498,3.63298
1308988951498,3.68220
1308989011498,3.64420
1308989071498,3.67362
1308989131498,3.65723
1308989191498,3.62779
1308989251498,3.62883
1308989311498,3.60711
1308989371498,3.65601
1308989431498,3.63832
1308989491498,3.65185
1308989551498,3.67771
1308989611498,3.68188
1308989671498,3.66708
1308989731498,3.66892
1308989791498,3.65029
1308989851498,3.66594
1308989911498,3.61322
1308989971498,3.67305
1308990031498,3.63721
1308990091498,3.65767
1308990151498,3.64443
1308990211498,3.64731
1308990271498,3.66175
1308990331498,3.63119
1308990391498,3.66749
1308990451498,3.66008
1308990511498,3.62351
1308990571498,3.65566
1308990631498,3.64240
1308990691498,3.63286
1308990751498,3.66572
1308990811498,3.61506
1308990871498,3.63821
1308990931498,3.67027
1308990991498,3.64793
1308991051498,3.62392
1308991111498,3.64736
1308991171498,3.63707
1308991231498,3.66388
1308991291498,3.65369
1308991351498,3.67645
1308991411498,3.65407
1308991471498,3.64251
1308991531498,3.60212
1308991591498,3.63848
1308991651498,3.63132
1308991711498,3.63397
1308991771498,3.64527
1308991831498,3.66652
1308991891498,3.65516
1308991951498,3.67028
1308992011498,3.68465
1308992071498,3.66805
1308992131498,3.69260
1308992191498,3.66442
1308992251498,3.68452
1308992311498,3.63052
1308992371498,3.66791
1308992431507,3.66779
1308992491507,3.64914
1308992551507,3.66092
1308992611507,3.63976
1308992671507,3.63946
1308992731507,3.65885
1308992791507,3.63946
1308992851507,3.63135
1308992911507,3.66713
1308992971507,3.66151
1308993031507,3.64264
1308993091507,3.66670
1308993151507,3.63171
1308993211507,3.64444
1308993271507,3.66497
1308993331507,3.67508
1308993391507,3.64505
1308993451507,3.65415
1308993511507,3.64871
1308993571507,3.64601
1308993631507,3.66643
1308993691507,3.68826
1308993751507,3.64522
1308993811507,3.63882
1308993871507,3.67924
1308993931507,3.65637
1308993991507,3.65907
1308994051507,3.66131
1308994111507,3.68138
1308994171507,3.65880
1308994231507,3.64397
1308994291507,3.65491
1308994351507,3.66334
1308994411507,3.70095
1308994471507,3.66545
1308994531507,3.65939
1308994591507,3.64023
1308994651507,3.68729
1308994711507,3.63135
1308994771507,3.67853
1308994831507,3.67322
1308994891507,3.63586
1308994951507,3.63955
1308995011507,3.65418
1308995071507,3.68971
1308995131507,3.69229
1308995191507,3.64910
1308995251507,3.64289
1308995311507,3.64180
1308995371507,3.68150
1308995431507,3.66505
1308995491507,3.66952
1308995551507,3.68132
1308995611507,3.64058
1308995671507,3.68515
1308995731507,3.70356
1308995791507,3.67011
1308995851507,3.67150
1308995911507,3.67738
1308995971507,3.60827
1308996031516,3.69150
1308996091516,3.69950
1308996151516,3.68211
1308996211516,3.62581
1308996271516,3.64035
1308996331516,3.67366
1308996391516,3.65314
1308996451516,3.63284
1308996511516,3.68701
1308996571516,3.65147
1308996631516,3.65322
1308996691516,3.67584
1308996751516,3.65801
1308996811516,3.67089
1308996871516,3.66843
1308996931516,3.66685
1308996991516,3.68624
1308997051516,3.63582
1308997111516,3.69577
1308997171516,3.68130
1308997231516,3.70585
1308997291516,3.71910
1308997351516,3.70713
1308997411516,3.70797
1308997471516,3.69528
1308997531516,3.66732
1308997591516,3.68477
1308997651516,3.69315
1308997711516,3.68690
1308997771516,3.68917
1308997831516,3.70456
1308997891516,3.68623
1308997951516,3.64820
1308998011516,3.65611
1308998071516,3.61971
1308998131516,3.64769
1308998191516,3.67989
1308998251516,3.65874
1308998311516,3.65819
1308998371516,3.66908
1308998431516,3.66180
1308998491516,3.66347
1308998551516,3.67169
1308998611516,3.66508
1308998671516,3.68449
1308998731516,3.64141
1308998791516,3.64095
1308998851516,3.62788
1308998911516,3.68202
1308998971516,3.67263
1308999031516,3.67021
1308999091516,3.66578
1308999151516,3.66362
1308999211516,3.67035
1308999271516,3.66277
1308999331516,3.66631
1308999391516,3.64350
1308999451516,3.67390
1308999511516,3.71208
1308999571516,3.67929
1308999631525,3.65179
1308999691525,3.65411
1308999751525,3.69796
1308999811525,3.66193
1308999871525,3.67185
1308999931525,3.68474
1308999991525,3.65737
1309000051525,3.69001
1309000111525,3.68233
1309000171525,3.68300
1309000231525,3.67082
1309000291525,3.66451
1309000351525,3.64611
1309000411525,3.63406
1309000471525,3.65204
1309000531525,3.68433
1309000591525,3.67526
1309000651525,3.65175
1309000711525,3.66177
1309000771525,3.64555
1309000831525,3.68794
1309000891525,3.65624
1309000951525,3.65151
1309001011525,3.64734
1309001071525,3.71140
1309001131525,3.67309
1309001191525,3.69725
1309001251525,3.68135
1309001311525,3.68494
1309001371525,3.68069
1309001431525,3.64693
1309001491525,3.64625
1309001551525,3.67588
1309001611525,3.67224
1309001671525,3.69970
1309001731525,3.64819
1309001791525,3.62709
1309001851525,3.68863
1309001911525,3.64670
1309001971525,3.69024
1309002031525,3.68901
1309002091525,3.63801
1309002151525,3.65583
1309002211525,3.66096
1309002271525,3.65553
1309002331525,3.66283
1309002391525,3.66420
1309002451525,3.64076
1309002511525,3.63801
1309002571525,3.66711
1309002631525,3.66903
1309002691525,3.64730
1309002751525,3.68719
1309002811525,3.67995
1309002871525,3.66951
1309002931525,3.67141
1309002991525,3.69404
1309003051525,3.68680
1309003111525,3.64819
1309003171525,3.67059
1309003231534,3.70351
1309003291534,3.64944
1309003351534,3.66018
1309003411533,3.68440
1309003471533,3.67625
1309003531533,3.66403
1309003591534,3.67248
1309003651534,3.65291
1309003711534,3.64473
1309003771534,3.67188
1309003831534,3.67315
1309003891534,3.67127
1309003951534,3.67066
1309004011534,3.66115
1309004071534,3.65440
1309004131534,3.67490
1309004191534,3.68400
1309004251534,3.73030
1309004311534,3.65629
1309004371534,3.70387
1309004431534,3.70063
1309004491534,3.64988
1309004551534,3.65459
1309004611534,3.67554
1309004671534,3.64993
1309004731533,3.71181
1309004791533,3.66606
1309004851533,3.67749
1309004911534,3.69118
1309004971534,3.67940
1309005031534,3.66954
1309005091534,3.66847
1309005151534,3.69541
1309005211534,3.70828
1309005271534,3.72275
1309005331534,3.68890
1309005391534,3.68540
1309005451534,3.70150
1309005511534,3.70530
1309005571534,3.68677
1309005631534,3.70420
1309005691534,3.63822
1309005751534,3.67559
1309005811534,3.67382
1309005871534,3.66816
1309005931534,3.71170
1309005991534,3.68880
1309006051534,3.66010
1309006111533,3.67354
1309006171533,3.67732
1309006231533,3.68444
1309006291534,3.68957
1309006351534,3.66584
1309006411534,3.67752
1309006471534,3.68052
1309006531534,3.67175
1309006591534,3.68911
1309006651534,3.68550
1309006711534,3.69390
1309006771534,3.72389
1309006831542,3.70342
1309006891542,3.74799
1309006951542,3.71112
1309007011542,3.70310
1309007071542,3.69891
1309007131542,3.68807
1309007191542,3.65199
1309007251542,3.67832
1309007311542,3.67654
1309007371542,3.68169
1309007431542,3.70048
1309007491542,3.71009
1309007551542,3.70593
1309007611542,3.69161
1309007671542,3.70240
1309007731542,3.70541
1309007791542,3.72594
1309007851542,3.70161
1309007911542,3.65836
1309007971542,3.68779
1309008031542,3.71299
1309008091542,3.70031
1309008151542,3.68105
1309008211542,3.68718
1309008271542,3.69900
1309008331542,3.67587
1309008391542,3.69190
1309008451542,3.69668
1309008511542,3.70039
1309008571542,3.67012
1309008631542,3.68604
1309008691542,3.70951
1309008751542,3.69469
1309008811542,3.67550
1309008871542,3.69087
1309008931543,3.67189
1309008991542,3.68173
1309009051542,3.73795
1309009111542,3.69446
1309009171542,3.69817
1309009231542,3.70338
1309009291542,3.71441
1309009351542,3.67088
1309009411542,3.71708
1309009471542,3.69248
1309009531542,3.71365
1309009591542,3.69462
1309009651542,3.69640
1309009711542,3.70968
1309009771542,3.66958
1309009831542,3.67829
1309009891542,3.71299
1309009951542,3.69073
1309010011542,3.65877
1309010071542,3.68548
1309010131542,3.68421
1309010191542,3.67721
1309010251542,3.68205
1309010311542,3.67786
1309010371542,3.70443
1309010431552,3.67957
1309010491552,3.69411
1309010551551,3.71618
1309010611551,3.68713
1309010671551,3.68544
1309010731551,3.69870
1309010791551,3.70258
1309010851551,3.70540
1309010911551,3.73107
1309010971552,3.67642
1309011031552,3.66015
1309011091552,3.69780
1309011151552,3.72297
1309011211551,3.68967
1309011271551,3.68477
1309011331552,3.69436
1309011391552,3.67456
1309011451552,3.72265
1309011511552,3.67923
1309011571552,3.73364
1309011631552,3.72994
1309011691552,3.70800
1309011751552,3.65666
1309011811552,3.70496
1309011871551,3.68789
1309011931551,3.67080
1309011991551,3.66346
1309012051551,3.71084
1309012111551,3.69625
1309012171551,3.70061
1309012231551,3.66734
1309012291551,3.72483
1309012351552,3.68981
1309012411552,3.65329
1309012471552,3.72410
1309012531552,3.69375
1309012591551,3.67481
1309012651551,3.71016
1309012711552,3.69475
1309012771552,3.68758
1309012831552,3.68518
1309012891552,3.66193
1309012951552,3.70130
1309013011552,3.69887
1309013071552,3.69361
1309013131552,3.70694
1309013191552,3.68401
1309013251551,3.67697
1309013311551,3.67932
1309013371551,3.68662
1309013431551,3.63947
1309013491551,3.70134
1309013551551,3.66551
1309013611551,3.70313
1309013671552,3.69410
1309013731552,3.69686
1309013791552,3.68320
1309013851552,3.71071
1309013911551,3.70967
1309013971551,3.66889
1309014031561,3.70076
1309014091561,3.63247
1309014151561,3.65557
1309014211561,3.69725
1309014271561,3.70522
1309014331561,3.70578
1309014391561,3.67134
1309014451561,3.67430
1309014511561,3.69327
1309014571561,3.68773
1309014631561,3.65455
1309014691561,3.66085
1309014751561,3.67778
1309014811561,3.73210
1309014871561,3.69747
1309014931561,3.67783
1309014991561,3.67619
1309015051561,3.66816
1309015111561,3.70928
1309015171561,3.68416
1309015231561,3.65638
1309015291561,3.68328
1309015351561,3.68943
1309015411561,3.70540
1309015471561,3.67245
1309015531561,3.66823
1309015591561,3.68166
1309015651561,3.68703
1309015711561,3.67609
1309015771561,3.71225
1309015831561,3.68451
1309015891561,3.67338
1309015951561,3.66648
1309016011561,3.70311
1309016071561,3.68671
1309016131561,3.68346
1309016191561,3.66227
1309016251561,3.67996
1309016311561,3.69728
1309016371561,3.66460
1309016431561,3.70939
1309016491561,3.71907
1309016551561,3.70601
1309016611561,3.69496
1309016671561,3.68251
1309016731561,3.70501
1309016791561,3.67162
1309016851561,3.66616
1309016911561,3.68564
1309016971561,3.67831
1309017031561,3.68882
1309017091561,3.71177
1309017151561,3.67331
1309017211561,3.65065
1309017271561,3.68271
1309017331561,3.67234
1309017391561,3.68183
1309017451561,3.67469
1309017511561,3.64792
1309017571561,3.67132
1309017631570,3.70392
1309017691570,3.68079
1309017751570,3.67650
1309017811570,3.65748
1309017871570,3.69049
1309017931570,3.67157
1309017991570,3.67881
1309018051570,3.69740
1309018111570,3.68826
1309018171570,3.70129
1309018231570,3.69221
1309018291570,3.69435
1309018351570,3.69422
1309018411570,3.69599
1309018471570,3.68979
1309018531570,3.68957
1309018591570,3.67269
1309018651570,3.69745
1309018711570,3.66742
1309018771570,3.69463
1309018831570,3.69272
1309018891570,3.69359
1309018951570,3.68185
1309019011570,3.68655
1309019071570,3.68618
1309019131570,3.68719
1309019191570,3.68384
1309019251570,3.67779
1309019311570,3.72156
1309019371570,3.70234
1309019431570,3.68287
1309019491570,3.71125
1309019551570,3.67990
1309019611570,3.68205
1309019671570,3.66051
1309019731570,3.70765
1309019791570,3.69881
1309019851570,3.68334
1309019911570,3.67532
1309019971570,3.69365
1309020031570,3.71030
1309020091570,3.69954
1309020151570,3.67022
1309020211570,3.81197
1309020271570,3.68766
1309020331570,3.69709
1309020391570,3.68618
1309020451570,3.68988
1309020511570,3.72165
1309020571570,3.69845
1309020631570,3.70189
1309020691570,3.72616
1309020751570,3.68961
1309020811570,3.69834
1309020871570,3.69398
1309020931570,3.71100
1309020991570,3.68478
1309021051570,3.69134
1309021111570,3.67174
1309021171570,3.68678
1309021231580,3.70065
1309021291580,3.68294
1309021351580,3.68724
1309021411580,3.69109
1309021471580,3.69560
1309021531580,3.72716
1309021591580,3.70846
1309021651580,3.69701
1309021711580,3.73737
1309021771580,3.67218
1309021831580,3.71217
1309021891580,3.68251
1309021951580,3.65380
1309022011580,3.66721
1309022071580,3.64960
1309022131580,3.68970
1309022191580,3.70463
1309022251580,3.69267
1309022311580,3.70372
1309022371580,3.70781
1309022431580,3.66181
1309022491580,3.69854
1309022551580,3.69246
1309022611580,3.67201
1309022671580,3.65724
1309022731580,3.64686
1309022791580,3.67627
1309022851580,3.64988
1309022911580,3.65326
1309022971580,3.67732
1309023031580,3.68553
1309023091580,3.68289
1309023151580,3.67345
1309023211580,3.68823
1309023271580,3.68064
1309023331580,3.65832
1309023391580,3.67406
1309023451580,3.66464
1309023511580,3.64374
1309023571580,3.65952
1309023631580,3.68433
1309023691580,3.66137
1309023751580,3.68291
1309023811580,3.68816
1309023871580,3.65951
1309023931580,3.66676
1309023991580,3.63418
1309024051580,3.65014
1309024111580,3.66453
1309024171580,3.68558
1309024231580,3.67337
1309024291580,3.68620
1309024351580,3.67336
1309024411580,3.68784
1309024471580,3.68674
1309024531580,3.68053
1309024591580,3.69501
1309024651580,3.68693
1309024711580,3.71086
1309024771580,3.70561
1309024831590,3.66683
1309024891590,3.67402
1309024951590,3.69462
1309025011590,3.69024
1309025071590,3.63979
1309025131590,3.67930
1309025191590,3.69105
1309025251590,3.69824
1309025311590,3.69011
1309025371590,3.68242